Regional Weather Roundup
Issued by NWS

Home | Current Version | Previous Version | Text Only | Print | Product List | Glossary On
Versions: 1 2 3 4 5 6 7 8 9 10 11 12 13 14 15 16 17 18 19 20 21 22 23 24 25 26 27 28 29 30 31 32 33 34 35 36 37 38 39 40 41 42 43 44 45 46 47 48 49 50
000
ASUS44 KOUN 240510
RWROK

WEATHER ROUNDUP FOR OKLAHOMA
NATIONAL WEATHER SERVICE NORMAN OK
1100 PM CST MON JAN 23 2017

NOTE: "FAIR" INDICATES FEW OR NO CLOUDS BELOW 12,000 FEET WITH NO
      SIGNIFICANT WEATHER AND/OR OBSTRUCTIONS TO VISIBILITY.

OKZ001>007-009>012-014-015-017-240600-
NORTHWEST OKLAHOMA AND THE PANHANDLE

CITY           SKY/WX    TMP DP  RH WIND       PRES   REMARKS
GAGE           CLEAR     49  37  63 S16       29.57F
GUYMON         CLEAR     52  29  41 SW21      29.54R
ENID/WOODRING  CLEAR     43  34  70 SE10      29.64F
$$

OKZ016-021>023-033>039-044-045-240600-
SOUTHWEST OKLAHOMA

CITY           SKY/WX    TMP DP  RH WIND       PRES   REMARKS
LAWTON/REGL    CLEAR     49  36  61 SE8       29.68F
LAWTON/FT SILL CLEAR     49  38  65 S10       29.67S
FREDERICK      CLEAR     47  38  71 S8        29.64F
CLINTON        CLEAR     49  36  61 S14       29.64F
HOBART         CLEAR     49  37  63 S15       29.64F
ALTUS AFB      CLEAR     44  36  73 SE7       29.64F
$$

OKZ018>020-024>031-240600-
CENTRAL OKLAHOMA

CITY           SKY/WX    TMP DP  RH WIND       PRES   REMARKS
OKLAHOMA CITY  CLEAR     47  32  56 S13       29.68F
OKC/WILEY POST CLEAR     51  32  48 S22       29.67F
OKC/TINKER AFB CLEAR     50  32  50 S15       29.68F
STILLWATER     CLEAR     47  30  51 SE10      29.68F
GUTHRIE        CLEAR     51  31  46 S14       29.66F
$$

OKZ008-013-054>072-240600-
NORTHEAST OKLAHOMA

CITY           SKY/WX    TMP DP  RH WIND       PRES   REMARKS
TULSA          CLEAR     46  33  60 SE10      29.76S
TULSA/JONES    CLEAR     46  33  60 S5        29.76S
PONCA CITY     CLEAR     44  31  60 SE14      29.69F
BARTLESVILLE   CLEAR     32  29  88 CALM      29.77F
MUSKOGEE       CLEAR     42  33  70 S6        29.80S
$$

OKZ032-040>043-046>053-073>077-240600-
SOUTH CENTRAL/SOUTHEAST OKLAHOMA

CITY           SKY/WX    TMP DP  RH WIND       PRES   REMARKS
ARDMORE/DWNTWN CLOUDY    46  34  61 S3        29.75S
MCALESTER      PTCLDY    51  30  44 S6        29.78F
$$




USA.gov is the U.S. government's official web portal to all federal, state and local government web resources and services.